Wetterstats.de || Aktuelle Messwerte / Archiv || Stationsstandorte || Wetterblog || Wissenswertes


Monatsübersicht für Juni 2019 Diagramm
 
Wetter Information zur Wetteranzeige
Zeitraffer
Tageslänge (hh:mm)
Höchsttemperatur in °C
Uhrzeit
Tiefsttemperatur in °C
Uhrzeit
Luftfeuchte (max., in %)
Uhrzeit
Luftfeuchte (min., in %)
Uhrzeit
Luftdruck (max., in hPa)
Uhrzeit
Luftdruck (min., in hPa)
Uhrzeit
Luftdruck (Ø, in hPa)
Regenrate (max, mm/h)
Uhrzeit
Niederschlag in mm
Niederschlagsdauer (hh:mm)
Verdunstung in mm
Solar in W/m² (Ø)
Solar in W/m² (max.)
UV-Index (max.)
Sonnenscheindauer (hh:mm)
Windrichtung (Ø)
Windstärke (Ø in km/h)
Windstärke (Ø in bft)
Windböe (max., in km/h)
Uhrzeit
Windböe (max., in bft)
Uhrzeit
Taupunkt (max., in °C)
Uhrzeit
Taupunkt (min., in °C)
Uhrzeit
Windchill (min., in °C)
Uhrzeit
Gewitterindex (max.)
Uhrzeit
Waldbrandindex (max.)
Uhrzeit
Graslandfeuerindex (max.)
Uhrzeit
Staubsturm-Index (max.)
Uhrzeit
01
Zeitraffer
16:34
27.4
16:00 Uhr
15.9
04:45 Uhr

94
02:20 Uhr
38
16:40 Uhr
1021.7
00:00 Uhr

1017.4
19:45 Uhr
1019.7
0,000
00:00 Uhr
0,000
00:00:00
2.667
254
902
12:45 Uhr
4.6
13:00 Uhr

06:00:00
0,2
0
9,7
17:15 Uhr

2
16.8
08:35 Uhr
11.6
16:40 Uhr
15.9
04:45 Uhr
11
00:10 Uhr
0.9
16:45 Uhr
4.4
16:45 Uhr
0.0
00:00 Uhr
02
Zeitraffer
16:36
30.0
18:15 Uhr
15.5
05:15 Uhr

85
04:50 Uhr
33
19:10 Uhr
1018.7
02:45 Uhr

1012.8
19:10 Uhr
1016.3
0,000
00:00 Uhr
0,000
00:00:00
3.480
305
850
13:40 Uhr
4.6
12:20 Uhr

06:03:00
1,5
0
14,5
01:45 Uhr

3
15.7
10:50 Uhr
11.8
19:10 Uhr
15.4
06:45 Uhr
8
00:00 Uhr
2.9
18:00 Uhr
5.9
12:35 Uhr
1.5
19:10 Uhr
03
Zeitraffer
16:38
33.3
12:50 Uhr
20.8
05:15 Uhr

64
05:25 Uhr
24
15:45 Uhr
1013.5
00:00 Uhr

1009.3
18:15 Uhr
1012.0
0,000
00:00 Uhr
0,000
00:00:00
4.318
328
900
13:35 Uhr
4.7
12:35 Uhr

08:59:00
1,6
0
25,7
15:05 Uhr

4
16.3
21:10 Uhr
8.8
18:45 Uhr
20.8
05:15 Uhr
9
22:10 Uhr
3.3
14:50 Uhr
5.9
09:00 Uhr
2.4
15:10 Uhr
04
Zeitraffer
16:40
29.9
18:00 Uhr
19.0
05:00 Uhr

77
03:40 Uhr
34
18:15 Uhr
1012.9
00:20 Uhr

1008.4
21:40 Uhr
1011.0
0,000
00:00 Uhr
0,000
00:00:00
3.683
307
769
12:05 Uhr
3.9
12:40 Uhr

06:57:00
1,4
0
20,9
11:55 Uhr

4
16.7
09:10 Uhr
12.1
18:15 Uhr
19.0
05:00 Uhr
10
23:15 Uhr
4.9
17:05 Uhr
5.9
00:00 Uhr
2.0
12:10 Uhr
05
Zeitraffer
16:41
31.9
12:20 Uhr
19.1
04:55 Uhr

79
04:55 Uhr
27
17:20 Uhr
1008.8
08:20 Uhr

1006.2
18:40 Uhr
1007.7
0,000
00:00 Uhr
0,000
00:00:00
4.521
311
809
13:15 Uhr
4.1
12:20 Uhr

08:39:00
3,7
1
25,7
15:10 Uhr

4
16.9
08:30 Uhr
10.3
17:20 Uhr
19.1
04:55 Uhr
10
00:00 Uhr
5.3
15:00 Uhr
5.9
00:00 Uhr
2.7
16:15 Uhr
06
Zeitraffer
16:43
30.8
13:55 Uhr
15.9
23:45 Uhr

90
23:25 Uhr
40
13:10 Uhr
1013.6
23:55 Uhr

1004.7
05:30 Uhr
1007.2
9,600
20:10 Uhr
6,000
00:29:00
3.327
283
829
12:25 Uhr
4.1
12:50 Uhr

07:12:00
2,6
1
24,1
14:20 Uhr

4
20.1
15:25 Uhr
14.0
23:45 Uhr
15.9
23:45 Uhr
11
15:10 Uhr
5.2
14:00 Uhr
5.9
00:00 Uhr
2.2
13:40 Uhr
07
Zeitraffer
16:45
24.8
18:19 Uhr
14.5
05:14 Uhr

89
00:05 Uhr
48
10:54 Uhr
1014.9
06:44 Uhr

1010.4
21:19 Uhr
1013.1
0,000
00:00 Uhr
0,000
00:00:00
2.946
258
1002
12:19 Uhr
4.4
12:14 Uhr

05:53:00
1,8
0
20,9
18:24 Uhr

4
15.6
23:24 Uhr
11.1
10:54 Uhr
14.5
05:14 Uhr
9
22:19 Uhr
0.0
00:00 Uhr
2.9
17:19 Uhr
0.0
00:00 Uhr
08
Zeitraffer
16:46
22.8
15:54 Uhr
16.3
06:34 Uhr

84
06:34 Uhr
32
16:04 Uhr
1022.7
23:55 Uhr

1011.0
02:14 Uhr
1017.3
4,800
05:59 Uhr
0,600
00:03:00
1.778
141
965
13:24 Uhr
4.5
13:49 Uhr

01:43:00
1,2
0
14,5
12:49 Uhr

3
16.3
03:49 Uhr
5.0
17:04 Uhr
16.3
06:34 Uhr
10
01:49 Uhr
1.3
18:14 Uhr
4.7
15:24 Uhr
0.0
00:04 Uhr
09
Zeitraffer
16:48
25.6
15:25 Uhr
14.9
04:10 Uhr

59
05:45 Uhr
28
17:25 Uhr
1024.9
07:45 Uhr

1018.5
23:45 Uhr
1022.4
0,000
00:00 Uhr
0,000
00:00:00
3.759
317
819
13:55 Uhr
4.5
13:50 Uhr

08:58:00
2,0
0
17,7
19:40 Uhr

3
10.1
23:20 Uhr
5.1
17:50 Uhr
14.9
04:10 Uhr
2
19:55 Uhr
1.3
17:25 Uhr
4.8
16:00 Uhr
0.0
00:00 Uhr
10
Zeitraffer
16:49
25.8
16:25 Uhr
15.2
06:35 Uhr

90
07:40 Uhr
53
00:00 Uhr
1018.5
00:00 Uhr

1008.7
23:55 Uhr
1013.0
14,400
05:00 Uhr
3,400
00:15:00
2.032
164
873
12:25 Uhr
4.5
12:20 Uhr

01:14:00
2,1
1
16,1
09:45 Uhr

3
19.1
23:45 Uhr
9.9
04:50 Uhr
13.3
06:50 Uhr
14
23:45 Uhr
3.2
00:00 Uhr
5.2
00:00 Uhr
1.1
00:00 Uhr
11
Zeitraffer
16:49
28.6
16:05 Uhr
18.7
05:20 Uhr

93
02:30 Uhr
55
17:15 Uhr
1010.3
23:19 Uhr

1006.8
22:24 Uhr
1008.4
24,000
23:54 Uhr
4,800
00:17:00
3.073
280
792
13:30 Uhr
4.3
12:45 Uhr

07:16:00
2,0
0
24,1
01:10 Uhr

4
20.7
23:14 Uhr
16.9
23:54 Uhr
18.7
01:05 Uhr
15
22:44 Uhr
0.6
16:20 Uhr
3.8
16:00 Uhr
0.0
00:00 Uhr
12
Zeitraffer
16:51
32.7
16:29 Uhr
18.1
04:34 Uhr

93
04:44 Uhr
36
17:44 Uhr
1012.0
00:19 Uhr

1002.7
17:29 Uhr
1007.0
50,400
00:29 Uhr
27,200
01:11:00
3.226
302
766
12:54 Uhr
4.5
12:44 Uhr

06:26:00
3,1
1
25,7
13:59 Uhr

4
21.0
12:44 Uhr
15.1
17:54 Uhr
16.2
02:04 Uhr
12
02:19 Uhr
0.0
00:04 Uhr
0.0
00:04 Uhr
0.0
00:04 Uhr
13
Zeitraffer
16:52
24.6
15:59 Uhr
15.9
04:39 Uhr

89
00:14 Uhr
44
15:29 Uhr
1015.5
23:54 Uhr

1010.3
00:09 Uhr
1013.3
0,000
00:04 Uhr
0,000
00:00:00
2.311
217
983
11:49 Uhr
4.6
11:54 Uhr

03:33:00
0,8
0
16,1
12:59 Uhr

3
16.6
00:04 Uhr
10.7
19:29 Uhr
15.9
04:39 Uhr
11
00:04 Uhr
0.0
00:04 Uhr
0.0
00:04 Uhr
0.0
00:04 Uhr
14
Zeitraffer
16:52
29.4
15:15 Uhr
15.0
05:05 Uhr

80
05:05 Uhr
26
14:05 Uhr
1018.2
09:25 Uhr

1014.4
23:50 Uhr
1016.4
0,000
00:04 Uhr
0,000
00:00:00
4.470
358
858
12:50 Uhr
4.9
12:45 Uhr

09:26:00
2,4
1
19,3
14:05 Uhr

3
16.1
19:25 Uhr
7.5
14:05 Uhr
15.0
05:05 Uhr
10
22:30 Uhr
0.0
00:04 Uhr
0.0
00:04 Uhr
0.0
00:04 Uhr
15
Zeitraffer
16:53
31.6
15:00 Uhr
21.5
05:40 Uhr

76
05:55 Uhr
44
16:15 Uhr
1014.4
00:00 Uhr

1007.2
12:00 Uhr
1009.9
0,000
00:00 Uhr
0,000
00:00:00
2.870
203
747
14:15 Uhr
3.8
14:15 Uhr

03:38:00
3,9
1
35,4
08:10 Uhr

5
20.5
13:10 Uhr
14.7
23:45 Uhr
19.7
05:10 Uhr
12
13:10 Uhr
0.0
00:00 Uhr
0.0
00:00 Uhr
0.0
00:00 Uhr


 
Wetter Information zur Wetteranzeige
Zeitraffer
Tageslänge (hh:mm)
Höchsttemperatur in °C
Uhrzeit
Tiefsttemperatur in °C
Uhrzeit
Luftfeuchte (max., in %)
Uhrzeit
Luftfeuchte (min., in %)
Uhrzeit
Luftdruck (max., in hPa)
Uhrzeit
Luftdruck (min., in hPa)
Uhrzeit
Luftdruck (Ø, in hPa)
Regenrate (max, mm/h)
Uhrzeit
Niederschlag in mm
Niederschlagsdauer (hh:mm)
Verdunstung in mm
Solar in W/m² (Ø)
Solar in W/m² (max.)
UV-Index (max.)
Sonnenscheindauer (hh:mm)
Windrichtung (Ø)
Windstärke (Ø in km/h)
Windstärke (Ø in bft)
Windböe (max., in km/h)
Uhrzeit
Windböe (max., in bft)
Uhrzeit
Taupunkt (max., in °C)
Uhrzeit
Taupunkt (min., in °C)
Uhrzeit
Windchill (min., in °C)
Uhrzeit
Gewitterindex (max.)
Uhrzeit
Waldbrandindex (max.)
Uhrzeit
Graslandfeuerindex (max.)
Uhrzeit
Staubsturm-Index (max.)
Uhrzeit
16
Zeitraffer
16:53
25.6
11:40 Uhr
16.6
05:35 Uhr

78
04:40 Uhr
45
11:40 Uhr
1020.6
22:35 Uhr

1013.5
00:00 Uhr
1017.9
0,000
00:00 Uhr
0,000
00:00:00
2.769
251
930
11:35 Uhr
4.6
11:35 Uhr

05:19:00
0,6
0
9,7
10:25 Uhr

2
14.6
00:00 Uhr
11.2
20:05 Uhr
16.6
05:35 Uhr
8
00:00 Uhr
1.7
11:05 Uhr
3.0
12:00 Uhr
0.0
00:00 Uhr
17
Zeitraffer
16:54
26.8
15:45 Uhr
16.6
04:50 Uhr

80
03:40 Uhr
39
18:05 Uhr
1021.7
07:35 Uhr

1018.4
20:45 Uhr
1020.3
0,000
00:00 Uhr
0,000
00:00:00
3.759
319
861
13:20 Uhr
4.6
12:35 Uhr

07:22:00
1,4
0
14,5
18:15 Uhr

3
14.8
07:00 Uhr
10.2
08:15 Uhr
16.6
04:50 Uhr
8
02:50 Uhr
2.0
15:40 Uhr
3.3
15:55 Uhr
0.0
00:00 Uhr
18
Zeitraffer
16:54
28.8
16:55 Uhr
16.7
04:45 Uhr

83
04:30 Uhr
29
18:00 Uhr
1019.2
00:50 Uhr

1012.4
19:50 Uhr
1016.0
0,000
00:00 Uhr
0,000
00:00:00
4.191
320
876
12:55 Uhr
4.9
12:40 Uhr

09:03:00
2,7
1
24,1
12:25 Uhr

4
14.6
07:25 Uhr
8.8
18:00 Uhr
16.7
04:45 Uhr
8
02:55 Uhr
2.3
16:30 Uhr
3.6
16:40 Uhr
0.0
00:00 Uhr
19
Zeitraffer
16:55
31.7
16:20 Uhr
18.6
04:15 Uhr

71
04:20 Uhr
33
15:55 Uhr
1012.7
00:00 Uhr

1005.6
18:00 Uhr
1008.8
0,000
00:00 Uhr
0,000
00:00:00
3.886
302
856
13:25 Uhr
4.9
13:10 Uhr

08:26:00
1,8
0
25,7
19:55 Uhr

4
17.0
17:45 Uhr
12.0
00:00 Uhr
18.6
04:15 Uhr
9
23:35 Uhr
2.3
15:35 Uhr
3.7
15:55 Uhr
0.0
00:00 Uhr
20
Zeitraffer
16:55
26.8
14:39 Uhr
20.0
05:44 Uhr

92
23:54 Uhr
45
01:19 Uhr
1011.5
23:34 Uhr

1006.2
02:54 Uhr
1008.9
21,600
21:34 Uhr
4,000
00:13:00
1.981
152
941
13:14 Uhr
5.1
12:34 Uhr

02:27:00
0,3
0
9,7
08:34 Uhr

2
19.2
22:44 Uhr
12.0
01:24 Uhr
20.0
05:44 Uhr
14
22:44 Uhr
2.2
01:44 Uhr
3.6
15:04 Uhr
0.0
00:00 Uhr
21
Zeitraffer
16:55
25.7
16:14 Uhr
17.1
04:49 Uhr

93
00:14 Uhr
40
16:29 Uhr
1019.1
23:39 Uhr

1011.2
00:59 Uhr
1015.2
2,400
00:29 Uhr
0,400
00:02:00
2.667
233
935
13:34 Uhr
4.8
13:34 Uhr

04:54:00
0,5
0
12,9
19:24 Uhr

2
19.4
00:14 Uhr
10.6
16:34 Uhr
17.1
04:49 Uhr
14
00:04 Uhr
0.0
00:04 Uhr
1.8
16:44 Uhr
0.0
00:04 Uhr
22
Zeitraffer
16:54
24.7
15:49 Uhr
15.1
05:19 Uhr

86
05:24 Uhr
45
15:39 Uhr
1022.1
09:49 Uhr

1019.2
00:04 Uhr
1020.7
0,000
00:04 Uhr
0,000
00:00:00
3.581
274
896
12:34 Uhr
4.5
12:44 Uhr

06:49:00
5,7
1
29,0
18:54 Uhr

4
14.2
12:14 Uhr
11.0
23:49 Uhr
14.3
05:39 Uhr
7
00:49 Uhr
0.6
15:39 Uhr
2.9
15:54 Uhr
0.0
00:04 Uhr
23
Zeitraffer
16:54
26.8
17:05 Uhr
14.3
04:45 Uhr

69
05:45 Uhr
35
17:35 Uhr
1022.6
23:50 Uhr

1020.1
19:10 Uhr
1021.3
0,000
00:04 Uhr
0,000
00:00:00
4.242
328
933
13:10 Uhr
4.6
12:45 Uhr

08:36:00
5,1
1
22,5
12:35 Uhr

4
14.2
09:50 Uhr
7.9
04:00 Uhr
12.8
05:40 Uhr
8
22:25 Uhr
1.9
15:30 Uhr
5.4
15:30 Uhr
1.5
19:20 Uhr
24
Zeitraffer
16:54
28.3
17:50 Uhr
15.3
05:00 Uhr

80
04:15 Uhr
25
14:35 Uhr
1024.3
08:50 Uhr

1021.5
19:40 Uhr
1022.8
0,000
00:00 Uhr
0,000
00:00:00
4.547
330
870
12:50 Uhr
4.8
12:40 Uhr

09:22:00
4,1
1
35,4
15:35 Uhr

5
13.5
00:00 Uhr
5.4
14:40 Uhr
15.3
05:00 Uhr
7
00:00 Uhr
3.6
14:40 Uhr
5.9
13:00 Uhr
2.7
15:40 Uhr
25
Zeitraffer
16:53
32.6
17:50 Uhr
20.1
02:40 Uhr

60
04:05 Uhr
28
20:30 Uhr
1022.4
00:00 Uhr

1018.6
19:10 Uhr
1020.6
0,000
00:00 Uhr
0,000
00:00:00
4.394
314
874
12:05 Uhr
4.7
12:30 Uhr

09:16:00
2,6
1
22,5
14:34 Uhr

4
15.3
09:25 Uhr
9.7
00:10 Uhr
20.1
02:40 Uhr
8
23:25 Uhr
4.0
20:05 Uhr
5.9
09:55 Uhr
2.4
11:40 Uhr
26
Zeitraffer
16:53
35.4
13:55 Uhr
21.3
04:50 Uhr

70
04:50 Uhr
38
13:55 Uhr
1019.7
23:50 Uhr

1016.8
17:35 Uhr
1018.0
0,000
00:00 Uhr
0,000
00:00:00
3.810
287
784
12:30 Uhr
4.4
12:50 Uhr

08:40:00
0,8
0
14,5
18:50 Uhr

3
20.0
16:20 Uhr
14.4
00:15 Uhr
21.3
04:50 Uhr
12
22:25 Uhr
3.9
14:05 Uhr
5.9
08:30 Uhr
1.5
19:00 Uhr
27
Zeitraffer
16:52
26.0
16:45 Uhr
17.1
06:20 Uhr

72
05:05 Uhr
38
15:20 Uhr
1022.9
23:30 Uhr

1019.8
00:05 Uhr
1021.6
0,000
00:00 Uhr
0,000
00:00:00
3.785
327
852
12:40 Uhr
5.3
12:50 Uhr

07:53:00
1,3
0
16,1
16:30 Uhr

3
15.9
00:00 Uhr
9.5
13:25 Uhr
17.1
06:20 Uhr
10
00:00 Uhr
3.7
15:30 Uhr
5.9
10:10 Uhr
1.6
14:05 Uhr
28
Zeitraffer
16:52
24.6
18:19 Uhr
14.2
05:20 Uhr

80
05:25 Uhr
44
18:14 Uhr
1023.6
08:49 Uhr

1021.6
18:44 Uhr
1022.7
0,000
00:00 Uhr
0,000
00:00:00
2.337
191
996
12:04 Uhr
5.1
13:04 Uhr

02:45:00
0,6
0
14,5
18:29 Uhr

3
13.4
11:49 Uhr
10.5
05:10 Uhr
14.2
05:20 Uhr
5
22:24 Uhr
3.5
18:19 Uhr
5.9
13:04 Uhr
1.6
18:34 Uhr
29
Zeitraffer
16:51
29.6
18:29 Uhr
15.0
04:44 Uhr

82
04:29 Uhr
25
18:29 Uhr
1022.4
02:14 Uhr

1015.7
23:49 Uhr
1019.6
0,000
00:04 Uhr
0,000
00:00:00
3.759
328
828
12:39 Uhr
5.1
12:54 Uhr

09:00:00
0,4
0
9,7
12:39 Uhr

2
13.8
08:39 Uhr
7.1
18:54 Uhr
15.0
04:44 Uhr
6
22:34 Uhr
4.1
18:44 Uhr
5.9
09:39 Uhr
1.3
15:04 Uhr
30
Zeitraffer
16:51
36.1
17:34 Uhr
17.8
05:19 Uhr

73
05:19 Uhr
17
16:54 Uhr
1015.6
00:04 Uhr

1008.0
18:04 Uhr
1011.4
0,000
00:04 Uhr
0,000
00:00:00
4.292
331
838
13:14 Uhr
5.0
12:49 Uhr

09:08:00
0,9
0
14,5
13:59 Uhr

3
19.0
21:54 Uhr
6.4
16:54 Uhr
17.8
05:19 Uhr
13
22:24 Uhr
4.6
18:04 Uhr
5.9
07:39 Uhr
1.6
12:44 Uhr

Seiten-Historie || Downloads || Impressum / Datenschutz